Weather History for Moline, IL

Change the Weather History Date:

Saturday, November 9, 2013

  Actual Average Record
Temperature  
Mean Temperature 51 °F 44 °F  
Max Temperature 60 °F 53 °F 77 °F (1999)
Min Temperature 42 °F 34 °F 10 °F (1991)
Degree Days  
Heating Degree Days 14 21  
Month to date heating degree days 187 175  
Since 1 July heating degree days 686 657  
Cooling Degree Days 0 0  
Month to date cooling degree days 0 0  
Year to date cooling degree days 998 1003  
Growing Degree Days 1 (Base 50)    
Moisture  
Dew Point 35 °F    
Average Humidity 57    
Maximum Humidity 70    
Minimum Humidity 44    
Precipitation  
Precipitation 0.00 in 0.08 in 1.57 in (1911)
Month to date precipitation 0.46 0.80  
Year to date precipitation 37.26 34.02  
Snow  
Snow 0.00 in 0.00 in - ()
Month to date snowfall 0.0 0.1  
Since 1 July snowfall 0.4 0.1  
Since 1 September snowfall 0.4 0.1  
Snow Depth 0.00 in    
Sea Level Pressure  
Sea Level Pressure 30.01 in    
Wind  
Wind Speed 15 mph (West)    
Max Wind Speed 26 mph    
Max Gust Speed 37 mph    
Visibility 10 miles    
Events      
T = Trace of Precipitation, MM = Missing Value Source: NWS Daily Summary

Daily Weather History Graph

Daily Weather History Graph

Search for Another Location

Airport:

Trip Planner

Search our weather history database for the weather conditions in past years. The results will help you decide how hot, cold, wet, or windy it might be!

Date:

Astronomy

Nov. 09, 2013 Rise Set
Actual Time 6:43 AM CST 4:47 PM CST
Civil Twilight 6:14 AM CST 5:16 PM CST
Nautical Twilight 5:41 AM CST 5:50 PM CST
Astronomical Twilight 5:08 AM CST 6:22 PM CST
Moon 12:19 PM CST (11/9) 11:19 PM CST (11/9)
Length of Visible Light 11h 02m
Length of Day
10h 03m
Waxing Crescent, 44% of the Moon is Illuminated
Nov 9
Waxing Crescent
Nov 9
First Quarter
Nov 17
Full
Nov 25
Last Quarter
Dec 2
New

Hourly Weather History & Observations

Time (CST) Temp. Windchill Dew Point Humidity Pressure Visibility Wind Dir Wind Speed Gust Speed Precip Events Conditions
12:52 AM 48.9 °F - 34.0 °F 56% 29.86 in 10.0 mi SSW 17.3 mph 27.6 mph N/A   Clear
1:52 AM 50.0 °F - 35.1 °F 57% 29.86 in 10.0 mi SSW 18.4 mph 28.8 mph N/A   Clear
2:52 AM 48.9 °F - 36.0 °F 61% 29.86 in 10.0 mi SW 16.1 mph 23.0 mph N/A   Clear
3:52 AM 48.9 °F - 36.0 °F 61% 29.87 in 10.0 mi SW 15.0 mph 23.0 mph N/A   Clear
4:52 AM 48.0 °F - 36.0 °F 63% 29.89 in 10.0 mi WSW 13.8 mph - N/A   Clear
5:52 AM 46.9 °F - 36.0 °F 66% 29.91 in 10.0 mi SW 12.7 mph - N/A   Clear
6:52 AM 46.0 °F 40.2 °F 35.1 °F 66% 29.92 in 10.0 mi WSW 12.7 mph - N/A   Clear
7:52 AM 46.9 °F - 36.0 °F 66% 29.94 in 10.0 mi WSW 12.7 mph - N/A   Clear
8:52 AM 51.1 °F - 36.0 °F 56% 29.95 in 10.0 mi West 13.8 mph 20.7 mph N/A   Clear
9:52 AM 54.0 °F - 36.0 °F 51% 29.96 in 10.0 mi West 17.3 mph - N/A   Clear
10:52 AM 55.0 °F - 36.0 °F 49% 29.97 in 10.0 mi West 20.7 mph 26.5 mph N/A   Clear
11:52 AM 57.9 °F - 37.0 °F 46% 29.97 in 10.0 mi West 19.6 mph 28.8 mph N/A   Clear
12:52 PM 59.0 °F - 37.0 °F 44% 29.97 in 10.0 mi West 19.6 mph 32.2 mph N/A   Clear
1:52 PM 59.0 °F - 37.0 °F 44% 29.99 in 10.0 mi West 21.9 mph 32.2 mph N/A   Clear
2:52 PM 57.0 °F - 37.0 °F 47% 30.02 in 10.0 mi WNW 18.4 mph 26.5 mph N/A   Clear
3:52 PM 55.0 °F - 37.0 °F 51% 30.05 in 10.0 mi West 19.6 mph - N/A   Clear
4:52 PM 50.0 °F - 36.0 °F 59% 30.06 in 10.0 mi West 8.1 mph - N/A   Clear
5:52 PM 48.9 °F - 35.1 °F 59% 30.09 in 10.0 mi West 9.2 mph - N/A   Clear
6:52 PM 48.0 °F - 35.1 °F 61% 30.11 in 10.0 mi West 10.4 mph - N/A   Clear
7:52 PM 48.9 °F - 35.1 °F 59% 30.13 in 10.0 mi WNW 13.8 mph 20.7 mph N/A   Clear
8:52 PM 46.9 °F - 34.0 °F 61% 30.16 in 10.0 mi WNW 11.5 mph - N/A   Clear
9:52 PM 45.0 °F 39.3 °F 34.0 °F 65% 30.19 in 10.0 mi WNW 11.5 mph - N/A   Clear
10:52 PM 43.0 °F 36.4 °F 33.1 °F 68% 30.22 in 10.0 mi WNW 12.7 mph - N/A   Clear
11:52 PM 42.1 °F 34.2 °F 30.0 °F 62% 30.23 in 10.0 mi WNW 16.1 mph - N/A   Clear